CAPE
0 0 0 0 0 0 3 3 6 31 50 71 63 51 63 52 13 0 0 0 0 3 0 0 0 0 0 0 0 0 0 0 0 0 0 0 9 0 0 0 0 0 0 11 8
0 0 0 0 0 2 3 17 4 6 29 41 36 19 111 86 19 0 0 0 54 48 0 0 0 0 0 0 0 0 0 26 0 0 0 0 0 0 0 0 0 0 0 0 0
0 0 0 0 0 0 0 36 6 0 0 21 14 0 34 81 1 0 0 0 0 42 21 0 0 0 0 0 0 0 0 7 0 0 0 0 0 0 0 0 0 0 0 0 0
0 0 0 0 0 0 21 48 33 24 13 46 26 22 49 32 0 0 0 176 19 43 5 0 0 0 0 0 0 0 0 0 0 0 0 0 0 0 0 0 0 0 0 0 0
0 0 0 0 0 0 5 41 39 30 61 67 93 39 27 1 0 0 0 237 48 16 0 0 0 0 0 0 0 0 0 0 0 0 0 0 0 0 0 0 0 0 0 0 0
0 0 0 0 0 0 0 4 31 55 73 39 74 7 0 0 0 0 107 165 79 78 0 0 0 0 0 0 0 0 0 0 0 0 0 0 0 0 0 0 0 0 0 0 0
0 0 0 0 0 0 0 0 5 3 4 49 12 0 0 0 0 0 0 114 204 55 0 0 0 0 0 0 0 0 0 0 0 0 0 0 0 0 0 0 0 0 0 0 0
1 0 0 0 0 0 0 1 0 0 0 7 14 1 0 0 0 0 0 0 13 0 0 0 0 0 0 0 0 0 0 0 0 0 0 0 0 0 0 0 0 0 0 0 0
1 0 0 0 0 0 0 0 0 0 6 2 8 1 0 0 0 0 0 0 0 0 0 0 0 0 0 0 0 0 0 0 0 0 0 0 0 0 0 0 0 0 0 0 0
1 0 0 0 0 0 0 0 0 0 3 4 0 0 0 0 0 0 0 0 0 0 0 0 0 0 0 0 0 0 0 0 0 0 0 0 0 0 0 0 0 0 0 0 0
0 0 0 0 0 0 0 0 0 0 0 0 0 0 0 0 0 0 0 0 0 0 0 0 0 0 0 0 0 0 0 0 0 0 0 0 0 0 0 0 0 0 0 0 0
0 0 0 0 0 0 0 0 0 0 0 0 0 0 0 0 0 0 0 0 0 0 0 0 0 0 0 0 0 0 0 0 0 0 0 0 0 0 0 0 0 0 0 0 0
0 0 0 0 0 0 0 0 0 0 0 0 0 0 0 0 0 0 0 0 0 0 0 0 0 0 0 0 0 0 0 0 0 0 0 0 0 0 0 0 0 0 0 0 0
0 0 0 0 0 0 0 0 0 0 0 0 0 0 0 0 0 0 0 0 0 0 0 0 0 0 0 0 0 0 0 0 0 0 0 0 0 0 0 0 0 0 0 0 0
0 0 0 0 0 0 0 0 0 0 0 0 0 0 0 0 0 0 0 0 0 0 0 0 0 0 0 0 0 0 0 0 0 0 0 0 0 0 0 0 0 0 0 0 0
0 0 0 0 0 0 0 0 0 0 0 0 0 0 0 0 0 0 0 0 0 0 0 0 0 0 0 0 0 0 0 0 0 0 0 0 0 0 0 0 0 0 0 0 0
0 0 0 0 0 0 0 0 0 0 0 0 0 0 0 0 0 0 0 0 0 0 0 0 0 0 0 0 0 0 0 0 0 0 0 0 0 0 0 0 0 0 0 0 0
0 0 0 0 0 0 0 0 0 0 0 0 0 0 0 0 0 0 0 0 0 0 0 0 0 0 0 0 0 0 0 0 0 0 0 0 0 0 0 0 0 0 0 0 0
0 0 0 0 0 0 0 0 0 0 0 0 0 0 0 0 0 0 0 0 0 0 0 0 0 0 0 0 0 0 0 0 0 0 0 0 0 0 0 0 0 0 0 0 0
0 0 0 0 0 0 0 0 0 0 0 0 0 0 0 0 0 0 0 0 0 0 0 0 0 0 0 0 0 0 0 0 0 0 0 0 0 0 0 0 0 0 0 0 0
0 0 0 0 0 0 0 0 0 0 0 0 0 0 0 0 0 0 0 0 0 0 0 0 0 0 0 0 0 0 0 0 0 0 0 0 0 0 0 0 0 0 0 0 0
0 0 0 0 0 0 0 0 0 0 0 0 0 0 0 0 0 0 0 0 0 0 0 0 0 0 0 0 0 0 0 0 0 0 0 0 0 0 0 0 0 0 0 0 0
0 0 0 0 0 0 0 0 0 0 0 0 0 0 0 0 0 0 0 0 0 0 0 0 0 0 0 0 0 0 0 0 0 0 0 0 0 0 0 0 0 0 0 0 0
0 0 0 0 0 0 0 0 0 0 0 0 0 0 0 0 0 0 0 0 0 0 0 0 0 0 0 0 0 0 0 0 0 0 0 0 0 0 0 0 0 0 0 0 0
0 0 0 0 0 0 0 0 0 0 0 0 0 0 0 0 0 0 0 0 0 0 0 0 0 0 0 0 0 0 0 0 0 0 0 0 0 0 0 0 0 0 0 0 0
0 0 0 0 0 0 0 0 0 0 0 0 0 0 0 0 0 0 0 0 0 0 0 0 0 0 0 0 0 0 0 0 0 0 0 0 0 0 0 0 0 0 0 0 0
0 0 0 0 0 0 0 0 0 0 0 0 0 0 0 0 0 0 0 0 0 0 0 0 0 0 0 0 0 0 0 0 0 0 0 0 0 0 0 0 0 0 0 0 0
CIN
-0 -0 -0 -0 -0 -0 -0 -0 -0 -0 -2 -3 -8 -26 -21 -8 -15 -0 -0 -0 -0 -4 -0 -0 -0 -0 -0 -0 -0 -0 -0 -0 -0 -0 -0 -108 -277 -0 -0 -0 -0 -0 -0 -234 -81
-0 -0 -0 -0 -0 -0 -0 -0 -0 -0 -2 -4 -16 -12 -19 -16 -16 -0 -0 -0 -13 -7 -0 -0 -0 -0 -0 -0 -0 -0 -0 -171 -0 -0 -0 -0 -0 -0 -0 -0 -0 -0 -0 -0 -0
-0 -0 -0 -0 -0 -0 -0 -9 -13 -0 -0 -9 -13 -0 -25 -8 -1 -0 -0 -0 -0 -1 -1 -0 -0 -0 -0 -0 -0 -0 -0 -112 -0 -0 -0 -0 -0 -0 -0 -0 -0 -0 -0 -0 -0
-0 -0 -0 -0 -0 -0 -9 -10 -21 -27 -29 -17 -12 -20 -16 -11 -0 -0 -0 -8 -8 -5 -5 -0 -0 -0 -0 -0 -0 -0 -0 -0 -0 -0 -0 -0 -0 -0 -0 -0 -0 -0 -0 -0 -0
-0 -0 -0 -0 -0 -0 -19 -15 -12 -23 -21 -10 -9 -12 -7 -0 -0 -0 -0 -21 -15 -18 -0 -0 -0 -0 -0 -0 -0 -0 -0 -0 -0 -0 -0 -0 -0 -0 -0 -0 -0 -0 -0 -0 -0
-0 -0 -0 -0 -0 -0 -0 -40 -16 -7 -11 -30 -14 -15 -0 -0 -0 -0 -37 -19 -28 -17 -0 -0 -0 -0 -0 -0 -0 -0 -0 -0 -0 -0 -0 -0 -0 -0 -0 -0 -0 -0 -0 -0 -0
-0 -0 -0 -0 -0 -0 -0 -0 -36 -30 -32 -19 -41 -1 -0 -0 -0 -0 -0 -23 -20 -25 -0 -0 -0 -0 -0 -0 -0 -0 -0 -0 -0 -0 -0 -0 -0 -0 -0 -0 -0 -0 -0 -0 -0
-0 -0 -0 -0 -0 -0 -0 -63 -10 -0 -0 -45 -35 -4 -1 -0 -0 -0 -0 -0 -41 -0 -0 -0 -0 -0 -0 -0 -0 -0 -0 -0 -0 -0 -0 -0 -0 -0 -0 -0 -0 -0 -0 -0 -0
-0 -0 -0 -0 -0 -0 -0 -0 -0 -9 -40 -67 -36 -27 -0 -0 -0 -0 -0 -0 -0 -0 -0 -0 -0 -0 -0 -0 -0 -0 -0 -0 -0 -0 -0 -0 -0 -0 -0 -0 -0 -0 -0 -0 -0
-0 -0 -0 -0 -0 -0 -0 -0 -0 -0 -51 -66 -0 -0 -0 -0 -0 -0 -0 -0 -0 -0 -0 -0 -0 -0 -0 -0 -0 -0 -0 -0 -0 -0 -0 -0 -0 -0 -0 -0 -0 -0 -0 -0 -0
-0 -0 -0 -0 -0 -0 -0 -0 -0 -0 -0 -0 -0 -0 -0 -0 -0 -0 -0 -0 -0 -0 -0 -0 -0 -0 -0 -0 -0 -0 -0 -0 -0 -0 -0 -0 -0 -0 -0 -0 -0 -0 -0 -0 -0
-0 -0 -0 -0 -0 -0 -0 -0 -0 -0 -0 -0 -0 -0 -0 -0 -0 -0 -0 -0 -0 -0 -0 -0 -0 -0 -0 -0 -0 -0 -0 -0 -0 -0 -0 -0 -0 -0 -0 -0 -0 -0 -0 -0 -0
-0 -0 -0 -0 -0 -0 -0 -0 -0 -0 -0 -0 -0 -0 -0 -0 -0 -0 -0 -0 -0 -0 -0 -0 -0 -0 -0 -0 -0 -0 -0 -0 -0 -0 -0 -0 -0 -0 -0 -0 -0 -0 -0 -0 -0
-0 -0 -0 -0 -0 -0 -0 -0 -0 -0 -0 -0 -0 -0 -0 -0 -0 -0 -0 -0 -0 -0 -0 -0 -0 -0 -0 -0 -0 -0 -0 -0 -0 -0 -0 -0 -0 -0 -0 -0 -0 -0 -0 -0 -0
-0 -0 -0 -0 -0 -0 -0 -0 -0 -0 -0 -0 -0 -0 -0 -0 -0 -0 -0 -0 -0 -0 -0 -0 -0 -0 -0 -0 -0 -0 -0 -0 -0 -0 -0 -0 -0 -0 -0 -0 -0 -0 -0 -0 -0
-0 -0 -0 -0 -0 -0 -0 -0 -0 -0 -0 -0 -0 -0 -0 -0 -0 -0 -0 -0 -0 -0 -0 -0 -0 -0 -0 -0 -0 -0 -0 -0 -0 -0 -0 -0 -0 -0 -0 -0 -0 -0 -0 -0 -0
-0 -0 -0 -0 -0 -0 -0 -0 -0 -0 -0 -0 -0 -0 -0 -0 -0 -0 -0 -0 -0 -0 -0 -0 -0 -0 -0 -0 -0 -0 -0 -0 -0 -0 -0 -0 -0 -0 -0 -0 -0 -0 -0 -0 -0
-0 -0 -0 -0 -0 -0 -0 -0 -0 -0 -0 -0 -0 -0 -0 -0 -0 -0 -0 -0 -0 -0 -0 -0 -0 -0 -0 -0 -0 -0 -0 -0 -0 -0 -0 -0 -0 -0 -0 -0 -0 -0 -0 -0 -0
-0 -0 -0 -0 -0 -0 -0 -0 -0 -0 -0 -0 -0 -0 -0 -0 -0 -0 -0 -0 -0 -0 -0 -0 -0 -0 -0 -0 -0 -0 -0 -0 -0 -0 -0 -0 -0 -0 -0 -0 -0 -0 -0 -0 -0
-0 -0 -0 -0 -0 -0 -0 -0 -0 -0 -0 -0 -0 -0 -0 -0 -0 -0 -0 -0 -0 -0 -0 -0 -0 -0 -0 -0 -0 -0 -0 -0 -0 -0 -0 -0 -0 -0 -0 -0 -0 -0 -0 -0 -0
-0 -0 -0 -0 -0 -0 -0 -0 -0 -0 -0 -0 -0 -0 -0 -0 -0 -0 -0 -0 -0 -0 -0 -0 -0 -0 -0 -0 -0 -0 -0 -0 -0 -0 -0 -0 -0 -0 -0 -0 -0 -0 -0 -0 -0
-0 -0 -0 -0 -0 -0 -0 -0 -0 -0 -0 -0 -0 -0 -0 -0 -0 -0 -0 -0 -0 -0 -0 -0 -0 -0 -0 -0 -0 -0 -0 -0 -0 -0 -0 -0 -0 -0 -0 -0 -0 -0 -0 -0 -0
-0 -0 -0 -0 -0 -0 -0 -0 -0 -0 -0 -0 -0 -0 -0 -0 -0 -0 -0 -0 -0 -0 -0 -0 -0 -0 -0 -0 -0 -0 -0 -0 -0 -0 -0 -0 -0 -0 -0 -0 -0 -0 -0 -0 -0
-0 -0 -0 -0 -0 -0 -0 -0 -0 -0 -0 -0 -0 -0 -0 -0 -0 -0 -0 -0 -0 -0 -0 -0 -0 -0 -0 -0 -0 -0 -0 -0 -0 -0 -0 -0 -0 -0 -0 -0 -0 -0 -0 -0 -0
-0 -0 -0 -0 -0 -0 -0 -0 -0 -0 -0 -0 -0 -0 -0 -0 -0 -0 -0 -0 -0 -0 -0 -0 -0 -0 -0 -0 -0 -0 -0 -0 -0 -0 -0 -0 -0 -0 -0 -0 -0 -0 -0 -0 -0
-0 -0 -0 -0 -0 -0 -0 -0 -0 -0 -0 -0 -0 -0 -0 -0 -0 -0 -0 -0 -0 -0 -0 -0 -0 -0 -0 -0 -0 -0 -0 -0 -0 -0 -0 -0 -0 -0 -0 -0 -0 -0 -0 -0 -0
-0 -0 -0 -0 -0 -0 -0 -0 -0 -0 -0 -0 -0 -0 -0 -0 -0 -0 -0 -0 -0 -0 -0 -0 -0 -0 -0 -0 -0 -0 -0 -0 -0 -0 -0 -0 -0 -0 -0 -0 -0 -0 -0 -0 -0
Wind_Speed
31 31 30 31 32 32 30 27 21 18 17 14 13 12 12 14 14 20 27 25 24 24 22 24 25 27 28 30 30 28 33 34 29 25 21 17 17 16 15 12 13 13 13 12 9
28 30 31 32 34 35 30 26 22 18 17 14 12 13 12 11 18 25 23 22 21 22 24 25 29 27 32 32 33 35 38 35 28 23 22 18 18 15 14 12 14 13 11 6 8
25 28 29 32 36 36 30 26 21 18 15 14 13 14 10 12 21 21 19 24 23 22 22 23 25 28 34 32 34 35 43 37 30 26 21 20 21 18 16 16 16 12 4 2 4
21 25 27 30 34 34 32 28 23 18 15 14 14 12 9 14 21 17 20 21 20 17 21 22 25 31 35 37 34 36 35 33 32 28 26 22 19 21 19 16 16 13 3 1 2
17 21 23 26 29 30 32 31 26 22 16 14 11 8 10 18 22 19 22 20 15 17 20 23 27 30 36 35 34 36 33 30 28 27 26 23 22 21 20 15 13 9 5 3 1
14 17 19 21 23 26 28 29 27 23 18 14 10 10 16 19 18 19 18 10 13 15 17 20 25 26 32 33 36 34 31 29 28 26 26 24 23 22 19 16 13 9 9 7 5
12 14 16 17 19 21 24 25 27 22 20 15 11 12 15 16 15 16 15 14 13 15 17 18 19 26 27 31 31 29 31 30 28 27 26 25 28 26 19 15 15 13 5 2 1
10 12 14 14 17 16 17 20 20 16 15 13 12 13 15 15 16 15 12 13 14 15 14 17 19 23 26 26 29 32 34 36 30 26 25 25 32 24 18 18 17 11 6 4 5
9 10 12 13 15 16 16 14 14 12 12 14 19 11 13 15 14 14 13 13 13 14 14 15 18 24 25 32 34 36 41 40 32 28 25 27 29 20 18 18 17 13 9 7 7
10 10 11 12 15 16 14 15 15 16 15 17 17 8 11 12 14 12 13 10 14 13 12 17 20 28 29 35 45 43 38 38 35 30 29 29 28 19 17 17 17 14 12 11 10
11 10 11 11 13 16 16 19 19 19 19 19 18 15 15 13 14 13 13 12 11 13 13 17 25 35 34 34 32 35 38 36 32 27 31 33 32 28 21 20 18 18 15 12 13
12 11 11 12 14 16 17 19 21 20 19 18 15 15 17 16 11 13 13 13 12 12 11 17 28 27 26 30 32 34 36 34 29 27 29 31 37 34 30 29 26 23 18 15 14
11 12 12 13 15 16 17 17 16 17 20 19 17 16 15 17 12 13 13 14 13 12 12 19 22 23 25 29 32 32 37 33 32 27 27 31 37 33 28 28 28 27 26 20 16
14 14 15 17 16 17 17 16 15 15 20 18 17 16 18 16 12 12 14 14 13 11 14 19 20 22 25 29 28 32 26 26 26 28 34 27 36 30 29 30 27 25 23 21 18
16 16 18 17 17 17 17 16 16 17 26 13 16 14 16 16 20 14 14 15 12 12 17 18 21 22 25 26 23 26 23 24 25 26 26 27 30 29 25 26 24 23 22 21 19
17 18 19 17 16 15 16 18 18 22 27 17 16 18 19 18 18 19 15 11 11 14 14 17 19 19 20 20 21 17 20 21 23 26 35 29 29 30 25 23 21 21 21 21 19
18 20 18 17 17 17 16 17 24 30 18 19 19 19 20 21 21 18 19 19 19 19 19 18 20 19 19 21 19 20 22 27 31 33 35 26 29 33 22 20 19 20 19 18 15
18 19 20 19 17 17 17 19 29 24 22 17 17 18 20 20 19 18 20 21 20 18 18 22 24 22 20 21 23 24 25 27 31 34 32 25 31 28 22 21 20 21 18 15 13
19 19 20 18 17 16 18 25 25 21 18 18 17 17 19 18 19 19 20 20 20 21 19 24 23 22 20 20 19 23 28 20 21 23 28 27 28 27 21 19 18 17 14 13 12
19 20 22 17 17 18 21 24 21 18 17 16 18 17 18 17 17 18 20 19 20 20 20 21 20 22 21 21 19 21 18 25 23 27 30 27 28 26 20 19 18 17 15 13 13
19 20 21 19 18 20 24 22 19 16 17 18 17 16 16 16 15 17 17 17 18 19 19 21 20 18 21 23 22 21 22 23 22 24 26 26 24 18 17 16 14 14 13 14 14
19 22 21 18 23 23 24 21 18 17 16 16 16 16 15 15 15 15 15 16 17 19 20 21 20 18 21 19 20 22 23 23 26 26 24 25 26 17 17 16 15 14 14 14 15
20 20 19 20 24 25 22 21 19 18 17 16 15 15 15 14 14 14 14 15 17 18 19 19 20 17 16 20 21 23 22 22 21 22 24 25 22 17 16 15 15 14 14 14 14
19 20 20 21 22 22 22 22 21 18 17 16 15 14 14 13 14 12 13 14 15 17 19 19 21 22 19 17 16 20 22 20 22 25 25 26 27 22 20 19 18 17 15 14 13
21 18 19 20 20 21 21 21 22 21 18 17 16 15 14 12 11 11 11 12 13 15 17 19 21 23 26 26 24 24 22 17 18 23 26 27 26 24 22 22 19 15 14 15 16
21 20 19 19 18 19 19 20 21 21 20 19 16 15 14 13 11 8 10 9 11 12 16 19 16 19 24 25 27 31 30 25 23 26 32 32 36 27 26 23 19 17 15 15 15
20 19 19 18 18 19 18 19 21 21 18 18 19 18 14 12 16 16 13 14 11 8 6 4 19 14 11 17 26 32 24 9 22 24 24 26 28 23 24 24 20 16 14 14 14
Wind_Direction
28 26 25 19 9 354 342 334 342 345 337 332 322 312 296 285 285 272 263 264 258 262 263 257 250 245 243 239 238 240 239 239 242 245 255 255 254 262 271 285 291 302 311 315 101
29 25 23 18 13 3 353 345 345 342 341 336 326 307 298 292 278 267 272 267 261 260 257 250 241 240 236 236 235 234 236 237 243 249 254 256 260 261 274 283 290 300 313 9 100
31 27 25 22 16 14 17 5 352 351 343 330 321 297 304 291 275 273 285 262 258 260 256 253 244 238 234 235 233 236 236 237 242 247 256 257 255 261 270 276 283 296 329 57 105
37 32 29 22 21 25 24 20 13 358 357 326 310 302 305 281 264 285 283 273 253 260 252 249 240 233 233 231 234 235 239 239 242 248 252 256 262 262 265 285 286 298 315 74 132
45 38 37 33 31 34 32 24 10 3 7 337 327 311 297 271 262 285 281 266 246 252 249 244 236 234 231 234 233 236 238 241 244 246 249 254 258 263 265 286 298 305 307 301 280
56 47 45 42 40 40 38 35 32 24 7 344 330 303 276 266 278 279 289 265 244 250 250 247 241 240 236 234 231 236 239 240 244 247 249 252 258 262 270 273 286 297 295 293 282
67 56 52 49 46 45 42 40 34 44 8 318 339 299 281 272 285 289 288 262 251 255 251 252 251 238 240 234 237 239 235 238 242 244 249 252 254 257 270 275 280 287 328 326 270
82 68 61 58 51 52 53 51 56 73 32 293 360 286 279 284 282 286 298 265 258 259 266 258 253 243 240 242 233 234 234 232 238 241 249 248 249 257 271 270 273 292 309 299 282
91 80 73 66 60 59 62 71 77 103 147 168 102 285 297 276 276 289 285 265 259 263 265 261 252 239 238 231 227 230 229 231 236 241 246 245 252 262 271 269 275 285 292 291 287
93 89 85 79 67 65 72 75 85 95 122 147 139 90 298 285 272 285 282 271 262 258 265 252 246 233 232 227 224 224 230 231 235 238 243 246 252 263 271 273 277 282 284 285 287
90 91 91 91 79 70 76 75 80 89 102 114 112 159 193 247 256 275 270 265 268 257 258 253 236 227 229 230 239 231 231 232 238 245 244 248 252 257 268 273 279 279 280 283 286
84 86 99 96 92 83 84 84 86 95 102 107 126 156 176 200 275 280 258 266 260 254 263 253 235 234 236 233 236 231 230 233 240 245 246 251 252 258 263 268 272 277 281 282 284
83 80 101 106 98 91 90 93 103 103 98 103 121 134 166 174 258 265 257 257 258 256 262 245 237 235 232 229 230 231 230 232 238 242 251 255 254 258 265 268 271 273 276 281 281
79 81 92 102 97 94 90 100 108 115 97 96 108 119 123 146 259 265 257 255 259 265 256 246 238 231 227 226 231 228 236 234 236 238 244 253 252 259 263 265 271 274 277 279 281
76 82 90 97 95 94 93 102 105 116 76 107 105 130 132 144 111 240 260 250 259 254 243 241 228 225 223 228 235 233 236 235 239 243 248 252 255 260 267 268 274 278 282 283 284
79 80 90 92 94 100 106 102 103 86 75 103 108 110 112 123 130 158 229 274 261 243 250 234 227 227 230 236 236 230 232 238 244 247 246 251 256 261 267 273 279 286 287 290 289
83 80 84 92 86 101 108 102 75 69 100 96 105 107 108 112 123 142 167 202 210 213 224 224 222 226 231 228 232 236 226 231 237 240 246 256 259 260 274 280 286 291 294 297 298
82 79 77 85 96 98 96 84 65 79 88 105 114 112 110 111 118 138 160 182 209 217 218 216 218 225 232 233 233 232 235 238 240 242 249 260 261 268 277 282 289 294 297 300 300
81 75 70 80 93 96 83 65 69 79 92 95 105 108 112 116 117 130 156 178 194 202 207 206 218 227 236 239 241 235 236 255 255 259 256 261 270 276 280 286 292 297 299 300 301
67 68 61 79 89 85 71 65 77 89 91 94 94 104 106 121 125 130 145 177 182 204 212 206 227 225 233 240 249 247 253 247 257 253 257 267 271 276 281 280 287 294 296 299 302
60 60 59 73 77 68 54 62 78 88 87 88 92 105 111 116 132 135 147 161 201 198 206 193 220 240 236 239 243 247 251 258 266 267 265 270 277 291 292 294 293 297 299 299 302
51 44 54 70 54 58 54 60 71 77 87 90 93 92 111 118 123 136 144 159 143 204 194 200 218 247 243 254 258 258 258 262 262 267 274 279 282 303 303 303 301 300 300 304 308
31 37 50 52 39 45 55 57 61 62 72 79 88 94 92 109 119 134 141 152 159 170 204 217 216 252 259 259 265 261 265 268 275 281 277 280 290 307 305 306 305 305 305 308 313
20 21 27 32 37 39 42 45 47 57 53 62 70 83 90 93 100 135 140 151 159 176 194 199 231 232 256 270 279 272 273 273 274 277 281 282 287 298 300 300 300 302 306 312 316
4 11 16 16 23 27 29 31 32 35 45 48 46 54 63 87 97 121 124 154 151 157 182 206 218 234 246 259 272 276 282 285 278 279 283 289 291 296 299 298 301 306 307 307 309
351 356 3 1 10 16 20 20 19 20 24 27 37 36 36 40 55 96 74 103 142 135 177 205 188 210 238 264 269 267 273 284 285 284 281 285 285 295 300 305 303 302 302 304 308
344 347 349 350 356 359 7 9 8 11 16 17 11 10 22 25 1 358 5 1 21 44 84 23 223 198 189 322 275 254 240 238 290 290 291 292 295 301 303 305 306 304 303 305 309